Loreto, Mexico

8:10 PM MDT on April 26, 2018 (GMT -0600)
Loreto International

Weather History for MMLT - October, 2011

Change the Weather History Date:

Saturday, October 1, 2011

  Actual Average Record
Temperature  
Mean Temperature 89 °F -  
Max Temperature 100 °F 90 °F 99 °F (2017)
Min Temperature 78 °F 79 °F 73 °F (2004)
Cooling Degree Days 24    
Growing Degree Days 39 (Base 50)    
Moisture  
Dew Point 73 °F    
Average Humidity 52    
Maximum Humidity 70    
Minimum Humidity 26    
Precipitation  
Precipitation 0.00 in - - ()
Sea Level Pressure  
Sea Level Pressure 29.83 in    
Wind  
Wind Speed 3 mph ()    
Max Wind Speed 12 mph    
Max Gust Speed -    
Visibility 9.5 miles    
Events      
Averages and records for this station are not official NWS values.
T = Trace of Precipitation, MM = Missing Value Source: Averaged Metar Reports

Daily Weather History Graph

Daily Weather History Graph

Search for Another Location

Airport or City:

Astronomy

Oct. 01, 2011 Rise Set
Actual Time 7:17 AM MDT 7:12 PM MDT
Civil Twilight 6:54 AM MDT 7:35 PM MDT
Nautical Twilight 6:27 AM MDT 8:01 PM MDT
Astronomical Twilight 6:01 AM MDT 8:28 PM MDT
Moon 11:55 AM MDT (10/1) 10:45 PM MDT (10/1)
Length of Visible Light 12h 40m
Length of Day
11h 54m
Waxing Crescent, 25% of the Moon is Illuminated
Oct 1
Waxing Crescent
Oct 3
First Quarter
Oct 11
Full
Oct 19
Last Quarter
Oct 26
New

Hourly Weather History & Observations

Time (MDT) Temp. Heat Index Dew Point Humidity Pressure Visibility Wind Dir Wind Speed Gust Speed Precip Events Conditions
2:35 AM 84 °F - 60 °F 33% 29.81 in 12 mi Calm Calm - -  
5:40 AM 85 °F - 56 °F 26% 29.80 in 12 mi WSW 2.2 mph - -  
7:10 AM 86.0 °F 91.8 °F 71.6 °F 62% 29.82 in 8.0 mi Calm Calm - N/A   Clear
7:43 AM 87.8 °F 93.8 °F 71.6 °F 58% 29.84 in 8.0 mi Calm Calm - N/A   Clear
8:40 AM 88 °F - 73 °F 52% 29.85 in 12 mi Calm Calm - -  
8:41 AM 89.6 °F 98.2 °F 73.4 °F 59% 29.86 in 8.0 mi Calm Calm - N/A   Clear
9:42 AM 89.6 °F 104.7 °F 78.8 °F 70% 29.87 in 8.0 mi NNE 6.9 mph - N/A   Clear
10:42 AM 91.4 °F 107.2 °F 78.8 °F 66% 29.87 in 8.0 mi NE 6.9 mph - N/A   Clear
11:40 AM 95 °F - 74 °F 42% 29.86 in 12 mi East 4.5 mph - -  
11:42 AM 93.2 °F 107.2 °F 77.0 °F 59% 29.87 in 8.0 mi East 11.5 mph - N/A   Clear
12:41 PM 93.2 °F 107.2 °F 77.0 °F 59% 29.85 in 8.0 mi East 9.2 mph - N/A   Clear
1:51 PM 93.2 °F 107.2 °F 77.0 °F 59% 29.85 in 8.0 mi Calm Calm - N/A   Clear
2:40 PM 98 °F - 71 °F 32% 29.82 in 12 mi ENE 4.5 mph - -   Scattered Clouds
2:42 PM 93.2 °F 107.2 °F 77.0 °F 59% 29.82 in 8.0 mi North 11.5 mph - N/A   Clear
3:42 PM 96.8 °F 118.6 °F 80.6 °F 60% 29.80 in 8.0 mi North 9.2 mph - N/A   Partly Cloudy
4:50 PM 96.8 °F 118.6 °F 80.6 °F 60% 29.79 in 8.0 mi North 9.2 mph - N/A   Clear
5:43 PM 95.0 °F 115.8 °F 80.6 °F 63% 29.78 in 8.0 mi North 6.9 mph - N/A   Clear
5:45 PM 95 °F - 73 °F 39% 29.79 in 12 mi ENE 6.7 mph - -  
6:41 PM 93.2 °F 107.2 °F 77.0 °F 59% 29.79 in 8.0 mi Calm Calm - N/A   Clear
8:50 PM 89 °F - 72 °F 47% 29.82 in 12 mi Calm Calm - -  
11:36 PM 86 °F - 62 °F 35% 29.83 in 12 mi Calm Calm - -